[[{"header":{"parameterUnit":"m.s-1","parameterCategory":1,"la1":30.2991,"la2":30.254,"lo1":-89.0895,"lo2":-89.0444,"dy":0.0017,"dx":0.0017,"nx":28,"ny":28,"refTime":"2024-06-29T21:00:00:Z","depth":0,"parameterNumber":2,"parameterNumberName":"U-component_of_WINDS"},"data":[0,0,0,0,0,0,0,0,0,0,0,0,0,0,0,0,0,0,0,0,0,0,0,0,0,0,0,0,0,0,0,0,0,0,0,0,0,0,0,0,0,0,0,0,0,0,0,0,0,0,0,0,0,0,0,0,0,0,4.487,4.4872,0,4.5005,4.5007,4.5008,4.4897,4.4892,4.4888,4.4883,4.5024,4.5032,4.504,0,0,0,0,0,0,0,0,0,0,0,0,0,4.4519,4.4526,4.487,4.4872,4.4873,4.5005,4.5007,4.5009,4.4898,4.4892,4.4886,4.4881,4.5021,4.5031,4.5041,0,0,0,0,0,0,0,0,0,0,0,0,0,4.4665,4.4528,4.487,4.4834,4.4832,4.5005,4.5007,4.5009,4.4899,4.4892,4.4885,4.4878,4.5018,4.503,4.5042,4.5258,0,0,4.5079,4.5085,0,0,0,0,0,0,0,0,4.4656,4.4678,4.4837,4.4837,4.4835,4.4927,4.4935,4.5093,4.4901,4.4874,4.4883,4.4875,4.4998,4.5011,4.5052,4.5265,4.5271,4.508,4.5088,4.5093,4.5097,0,0,0,0,0,0,0,4.4646,4.4671,4.4923,4.484,4.4838,4.4812,4.4825,4.4964,4.4974,4.4875,4.4868,4.4885,4.4996,4.5041,4.5054,4.5273,4.508,4.5091,4.5098,4.5103,4.5672,4.5679,0,0,0,0,0,0,4.464,4.4663,4.4919,4.4928,4.4726,4.4824,4.4838,4.4905,4.4972,4.4975,4.4891,4.4879,4.5023,4.504,4.5059,4.5317,4.5093,4.5104,4.5111,4.5664,4.5673,4.5682,0,0,0,0,0,0,4.4632,4.4663,4.4914,4.4794,4.4823,4.4838,4.4913,4.4911,4.4956,4.4983,4.4985,4.4935,4.5018,4.5042,4.521,4.5321,4.511,4.5121,4.5655,4.5667,4.5678,4.5836,0,0,0,0,0,0,4.4623,4.4662,4.4743,4.4796,4.483,4.5062,4.4919,4.4919,4.4977,4.4963,4.5025,4.5029,4.5015,4.5192,4.5222,4.5334,4.513,4.5645,4.566,4.5674,4.5821,4.5851,4.5878,0,0,0,0,0,4.4611,4.4782,4.4748,4.4779,4.4932,4.5068,4.5088,4.5068,4.4986,4.5069,4.5087,4.5027,4.5304,4.521,4.5243,4.536,4.5638,4.5656,4.5673,4.5808,4.5845,4.5877,0,0,0,0,0,0,4.4742,4.4788,4.475,4.4944,4.5003,4.5049,4.5152,4.5108,4.5191,4.5175,4.5147,4.5162,4.5339,4.5366,4.5261,4.5574,4.5458,4.5483,4.5549,4.5585,4.5613,4.5603,4.5141,0,0,0,0,0,4.4793,4.4899,4.4934,4.5102,4.5133,4.5138,4.5197,4.5176,4.5236,4.5261,4.5291,4.5353,4.5454,4.5521,4.5615,4.5824,4.5837,4.5921,4.5949,4.5973,4.5995,4.6109,4.6147,4.5739,4.5739,4.5739,0,0,4.49,4.4939,4.5008,4.5129,4.5172,4.5284,4.516,4.5283,4.5365,4.528,4.544,4.5465,4.5532,4.5722,4.5807,4.575,4.611,4.5995,4.6013,4.6023,4.6131,4.6169,4.6204,4.5751,4.5749,4.5747,0,0,4.5153,4.5192,4.5337,4.5383,4.545,4.5452,4.5488,4.5541,4.5554,4.5715,4.5653,4.5752,4.5926,4.5977,4.6026,4.63,4.6248,4.6331,4.648,4.6592,4.6624,4.6652,4.6751,4.6787,4.6353,4.6354,4.6354,0,4.5278,4.5442,4.5417,4.5545,4.5601,4.5528,4.5675,4.5722,4.5817,4.5858,4.5792,4.6011,4.605,4.6252,4.6319,4.636,4.6401,4.6324,4.6621,4.665,4.6676,4.677,4.6807,4.6363,4.6362,4.6361,4.636,0,4.5594,4.5709,4.5818,4.5911,4.598,4.6117,4.6113,4.6186,4.616,4.617,4.6335,4.6381,4.6484,4.653,4.6506,4.6729,4.6692,4.6625,4.6508,4.6725,4.6813,4.6848,4.6377,4.6374,4.6371,4.6368,0,0,4.5932,4.601,4.6051,4.6093,4.6163,4.6252,4.6386,4.6487,4.655,4.6619,4.6732,4.6882,4.6821,4.6876,4.6857,4.6955,4.7171,4.6876,4.6877,4.693,4.7422,4.7472,4.7514,4.7137,4.7144,4.715,4.7416,0,4.6188,4.6421,4.6403,4.6623,4.6731,4.6664,4.6782,4.6838,4.6852,4.6945,4.696,4.7068,4.6978,4.7011,4.7105,4.7125,4.727,4.7106,4.7244,4.7249,4.7229,4.756,4.7613,4.7863,4.745,4.7456,4.746,0,4.6517,4.6597,4.6829,4.6884,4.6928,4.7034,4.7126,4.7216,4.7279,4.7282,4.7345,4.731,4.7448,4.7328,4.7518,4.7406,4.7462,4.7481,4.749,4.7502,4.7368,4.7582,4.7942,4.7979,4.7514,4.751,4.7506,0,4.6742,4.6908,4.7068,4.7106,4.7174,4.725,4.7282,4.7338,4.7401,4.7481,4.7521,4.7617,4.767,4.7746,4.7738,4.7652,4.7932,4.7811,4.7939,4.794,4.8001,4.7998,4.8376,4.8037,4.8036,4.8036,4.8035,0,4.703,4.7174,4.717,4.7269,4.7429,4.7408,4.7568,4.7591,4.7642,4.7745,4.7694,4.7792,4.7776,4.7875,4.7871,4.8029,4.8053,4.8061,4.8058,4.8066,4.8065,4.8102,4.8084,4.8045,4.8043,4.8041,4.804,0,4.7308,4.731,4.7481,4.7531,4.7548,4.7664,4.7708,4.7802,4.7812,4.7943,4.7973,4.7988,4.8102,4.8102,4.8233,4.8229,4.8424,4.8401,4.8403,4.8398,4.8527,4.8515,4.8942,4.8998,4.8622,4.8626,4.8629,0,4.7491,4.7601,4.7664,4.7729,4.7766,4.7872,4.7935,4.7919,4.7987,4.8069,4.8154,4.8263,4.8349,4.8534,4.8558,4.8658,4.8637,4.878,4.8652,4.8657,4.864,4.8634,4.8646,4.8805,4.8809,4.8813,4.8816,0,4.7818,4.7814,4.7907,4.8002,4.8078,4.8152,4.822,4.8277,4.8268,4.8348,4.8464,4.8531,4.8664,4.8774,4.887,4.8904,4.886,4.8856,4.8891,4.89,4.8897,4.8901,4.8472,4.8846,4.8843,4.8841,4.8839,4.8838,4.8054,4.8149,4.8209,4.8315,4.8364,4.8429,4.8521,4.8542,4.8638,4.8745,4.873,4.886,4.8922,4.9047,4.909,4.9192,4.9142,4.9193,4.9205,4.9218,4.9233,4.8881,4.9209,4.9208,4.9208,4.9207,4.9206,0,4.8379,4.8414,4.8512,4.8608,4.8692,4.8643,4.8716,4.879,4.8904,4.8965,4.9052,4.9186,4.9292,4.9325,4.9428,4.9504,4.9486,4.9532,4.9526,4.9535,4.9271,4.9231,4.9544,4.9544,4.9544,4.9544,4.9544,4.9544,4.8557,4.8716,4.872,4.8903,4.8937,4.9063,4.911,4.917,4.9219,4.9371,4.9459,4.9479,4.953,4.9637,4.9733,4.974,4.9781,4.9835,4.9834,4.9587,4.9553,4.9521,4.9483,4.9844,4.9844,5.0089,5.0091,5.0093]},{"header":{"parameterUnit":"m.s-1","parameterCategory":1,"la1":30.2991,"la2":30.254,"lo1":-89.0895,"lo2":-89.0444,"dy":0.0017,"dx":0.0017,"nx":28,"ny":28,"refTime":"2024-06-29T21:00:00:Z","depth":0,"parameterNumber":3,"parameterNumberName":"V-component_of_WINDS"},"data":[0,0,0,0,0,0,0,0,0,0,0,0,0,0,0,0,0,0,0,0,0,0,0,0,0,0,0,0,0,0,0,0,0,0,0,0,0,0,0,0,0,0,0,0,0,0,0,0,0,0,0,0,0,0,0,0,0,0,-0.7631,-0.7632,0,-0.771,-0.7711,-0.7712,-0.7795,-0.7796,-0.7797,-0.7798,-0.7877,-0.7878,-0.7879,0,0,0,0,0,0,0,0,0,0,0,0,0,-0.7551,-0.7552,-0.7631,-0.7632,-0.7633,-0.771,-0.7711,-0.7712,-0.7795,-0.7796,-0.7798,-0.7799,-0.7877,-0.7878,-0.7879,0,0,0,0,0,0,0,0,0,0,0,0,0,-0.7603,-0.7552,-0.7631,-0.7684,-0.7689,-0.771,-0.7711,-0.7712,-0.7794,-0.7796,-0.7798,-0.78,-0.7877,-0.7878,-0.788,-0.7854,0,0,-0.7884,-0.7885,0,0,0,0,0,0,0,0,-0.76,-0.7606,-0.7675,-0.768,-0.7686,-0.7744,-0.7712,-0.776,-0.7794,-0.7754,-0.7798,-0.78,-0.7832,-0.7837,-0.7848,-0.7858,-0.7861,-0.7884,-0.7885,-0.7886,-0.7886,0,0,0,0,0,0,0,-0.7596,-0.7603,-0.7662,-0.7676,-0.7683,-0.7703,-0.7712,-0.7721,-0.7782,-0.7758,-0.7764,-0.7772,-0.7835,-0.7846,-0.785,-0.7862,-0.7884,-0.7886,-0.7887,-0.7887,-0.7855,-0.7853,0,0,0,0,0,0,-0.7585,-0.7599,-0.766,-0.7664,-0.7647,-0.7703,-0.7713,-0.7724,-0.7782,-0.7793,-0.7771,-0.7776,-0.7843,-0.7848,-0.7853,-0.7827,-0.7886,-0.7887,-0.7888,-0.7857,-0.7855,-0.7853,0,0,0,0,0,0,-0.7583,-0.7589,-0.7656,-0.7634,-0.7644,-0.7702,-0.7714,-0.7725,-0.7736,-0.7792,-0.7803,-0.7771,-0.7844,-0.7851,-0.7853,-0.7831,-0.7888,-0.7889,-0.7859,-0.7856,-0.7854,-0.7773,0,0,0,0,0,0,-0.758,-0.7588,-0.7579,-0.7633,-0.7645,-0.7655,-0.7712,-0.7725,-0.7738,-0.7746,-0.7795,-0.7805,-0.7846,-0.7851,-0.7855,-0.7834,-0.7891,-0.7861,-0.7858,-0.7855,-0.7778,-0.7768,-0.776,0,0,0,0,0,-0.7577,-0.7553,-0.7578,-0.7585,-0.7635,-0.7653,-0.766,-0.7709,-0.7736,-0.7727,-0.7764,-0.7803,-0.7833,-0.785,-0.7856,-0.7835,-0.7863,-0.7859,-0.7855,-0.7782,-0.777,-0.776,0,0,0,0,0,0,-0.7494,-0.7561,-0.759,-0.7582,-0.7612,-0.7668,-0.7658,-0.7694,-0.7716,-0.7722,-0.7781,-0.7791,-0.7786,-0.7811,-0.7829,-0.7813,-0.7854,-0.785,-0.7797,-0.7785,-0.7776,-0.777,-0.7892,0,0,0,0,0,-0.7475,-0.7485,-0.7543,-0.7531,-0.7544,-0.7598,-0.7608,-0.7643,-0.7676,-0.7688,-0.7725,-0.7754,-0.7771,-0.778,-0.7798,-0.7783,-0.7795,-0.7771,-0.7762,-0.7754,-0.775,-0.7744,-0.7734,-0.784,-0.784,-0.784,0,0,-0.7435,-0.7473,-0.7476,-0.7515,-0.7542,-0.7551,-0.7608,-0.7615,-0.7622,-0.7689,-0.7693,-0.7721,-0.7758,-0.7752,-0.7751,-0.7772,-0.7724,-0.7749,-0.7742,-0.7743,-0.7739,-0.7729,-0.772,-0.7837,-0.7837,-0.7838,0,0,-0.7368,-0.7398,-0.7391,-0.7417,-0.7457,-0.7494,-0.7492,-0.7543,-0.7564,-0.7569,-0.762,-0.7629,-0.7656,-0.768,-0.7695,-0.7638,-0.7675,-0.7642,-0.7593,-0.7587,-0.7578,-0.7571,-0.755,-0.7542,-0.7639,-0.7639,-0.7638,0,-0.7313,-0.7329,-0.7383,-0.7387,-0.7402,-0.7465,-0.7458,-0.7481,-0.7524,-0.7533,-0.7557,-0.7592,-0.7622,-0.7621,-0.7607,-0.7618,-0.7618,-0.7636,-0.7575,-0.7569,-0.7563,-0.7543,-0.7535,-0.7634,-0.7635,-0.7635,-0.7636,0,-0.726,-0.727,-0.7259,-0.7301,-0.7315,-0.7314,-0.7367,-0.7375,-0.7409,-0.7443,-0.7447,-0.7485,-0.7512,-0.7515,-0.7548,-0.7519,-0.7531,-0.7565,-0.7606,-0.7548,-0.753,-0.7523,-0.7628,-0.763,-0.7631,-0.7632,0,0,-0.714,-0.7212,-0.7207,-0.7227,-0.7276,-0.7285,-0.7286,-0.7313,-0.7319,-0.7347,-0.7349,-0.7371,-0.7402,-0.742,-0.7457,-0.7451,-0.7402,-0.7485,-0.7487,-0.7467,-0.7372,-0.7346,-0.7336,-0.7428,-0.7427,-0.7426,-0.7369,0,-0.708,-0.7087,-0.7135,-0.7128,-0.7137,-0.7198,-0.7199,-0.7229,-0.7261,-0.7274,-0.7309,-0.7323,-0.7364,-0.7375,-0.7372,-0.7408,-0.7384,-0.7414,-0.7429,-0.7429,-0.7417,-0.7327,-0.7299,-0.7244,-0.7363,-0.7361,-0.7361,0,-0.701,-0.7035,-0.7028,-0.7078,-0.7084,-0.7084,-0.7113,-0.7125,-0.716,-0.7184,-0.7204,-0.7246,-0.7251,-0.7291,-0.7298,-0.7317,-0.7327,-0.7346,-0.7345,-0.7347,-0.739,-0.7325,-0.7227,-0.7218,-0.7351,-0.7351,-0.7352,0,-0.6922,-0.6954,-0.6954,-0.6969,-0.7028,-0.7027,-0.7051,-0.7089,-0.7102,-0.7127,-0.7136,-0.7161,-0.7174,-0.7192,-0.7239,-0.7265,-0.7241,-0.7285,-0.726,-0.7258,-0.725,-0.725,-0.715,-0.7259,-0.7259,-0.7259,-0.7259,0,-0.6849,-0.6842,-0.6916,-0.6915,-0.691,-0.6966,-0.6959,-0.6989,-0.7022,-0.7028,-0.7083,-0.7087,-0.715,-0.7162,-0.7199,-0.7199,-0.7205,-0.7224,-0.7233,-0.7218,-0.7215,-0.7224,-0.7228,-0.7257,-0.7258,-0.7258,-0.7258,0,-0.6749,-0.6798,-0.6802,-0.6858,-0.6872,-0.6865,-0.6912,-0.6914,-0.695,-0.6957,-0.6962,-0.7018,-0.7035,-0.7085,-0.7114,-0.7139,-0.7127,-0.7147,-0.7115,-0.7121,-0.7092,-0.7094,-0.6994,-0.6983,-0.7099,-0.7098,-0.7097,0,-0.6699,-0.6695,-0.675,-0.6759,-0.6781,-0.6794,-0.6808,-0.6864,-0.6876,-0.6917,-0.6913,-0.6935,-0.6955,-0.6979,-0.7022,-0.7045,-0.7064,-0.7028,-0.7068,-0.7052,-0.7062,-0.7061,-0.706,-0.7018,-0.7016,-0.7015,-0.7014,0,-0.6603,-0.6628,-0.6646,-0.6672,-0.6687,-0.6711,-0.6737,-0.6741,-0.6804,-0.6814,-0.6833,-0.6848,-0.6879,-0.6899,-0.6929,-0.6954,-0.6994,-0.7002,-0.6997,-0.698,-0.6961,-0.697,-0.7089,-0.7003,-0.7004,-0.7005,-0.7006,-0.7006,-0.6526,-0.6525,-0.6564,-0.6582,-0.6608,-0.6632,-0.6636,-0.6673,-0.6689,-0.6719,-0.6751,-0.6765,-0.6802,-0.6846,-0.6868,-0.688,-0.6902,-0.6895,-0.6893,-0.689,-0.6882,-0.6961,-0.6886,-0.6887,-0.6887,-0.6887,-0.6888,0,-0.6432,-0.646,-0.6476,-0.6512,-0.6526,-0.6564,-0.6596,-0.6605,-0.6617,-0.6648,-0.6667,-0.6688,-0.6708,-0.6753,-0.6777,-0.6778,-0.6797,-0.6782,-0.6782,-0.6787,-0.6862,-0.6863,-0.6767,-0.6767,-0.6767,-0.6767,-0.6767,-0.6767,-0.6384,-0.6385,-0.6414,-0.6429,-0.6457,-0.6472,-0.6486,-0.6508,-0.6534,-0.6554,-0.6572,-0.6601,-0.6638,-0.6665,-0.6686,-0.6698,-0.6704,-0.6683,-0.6701,-0.677,-0.6782,-0.6793,-0.6794,-0.6684,-0.6684,-0.6625,-0.6625,-0.6624]}]]